Location: Gisborne
(38.6530°S, 178.0040°E)
Time: 16:57:58
(UTC+12:00)

USA 238 - Pass Details

Date: 24 January 2019
Orbit: 1043 x 1170 km, 63.4° (Epoch: 15 April)

Event Time Altitude Azimuth Distance (km) Brightness Sun altitude
Rises 22:13:25 0° 347° (NNW) 4,034 6.4 -17.5°
Reaches altitude 10° 22:16:13 10° 352° (N) 3,075 5.8 -17.9°
Maximum altitude 22:23:16 50° 65° (ENE) 1,456 4.0 -18.8°
Drops below altitude 10° 22:30:15 10° 137° (SE) 3,050 6.1 -19.8°
Sets 22:33:00 0° 141° (SE) 3,998 6.8 -20.1°
